TimeHST,TemperatureF,Dew PointF,Humidity,Sea Level PressureIn,VisibilityMPH,Wind Direction,Wind SpeedMPH,Gust SpeedMPH,PrecipitationIn,Events,Conditions,WindDirDegrees,DateUTC
12:53 AM,78.1,72.0,81,29.91,10.0,SSW,12.7,-,0.01,,Mostly Cloudy,210,2012-10-08 10:53:00
1:53 AM,78.1,72.0,81,29.89,10.0,SSW,9.2,-,N/A,,Scattered Clouds,210,2012-10-08 11:53:00
2:32 AM,78.8,71.6,78,29.89,10.0,SW,9.2,-,N/A,,Mostly Cloudy,230,2012-10-08 12:32:00
2:53 AM,78.1,71.1,79,29.88,10.0,SW,9.2,-,N/A,,Mostly Cloudy,220,2012-10-08 12:53:00
3:53 AM,78.1,71.1,79,29.88,10.0,SSW,6.9,-,N/A,,Scattered Clouds,210,2012-10-08 13:53:00
4:53 AM,78.1,71.1,79,29.88,10.0,SSW,6.9,-,N/A,,Scattered Clouds,200,2012-10-08 14:53:00
5:53 AM,77.0,71.1,82,29.90,10.0,SSW,4.6,-,N/A,,Scattered Clouds,210,2012-10-08 15:53:00
6:27 AM,78.8,69.8,74,29.90,10.0,SSW,6.9,-,N/A,,Mostly Cloudy,200,2012-10-08 16:27:00
6:34 AM,77.0,71.6,83,29.90,10.0,South,4.6,-,N/A,,Mostly Cloudy,180,2012-10-08 16:34:00
6:53 AM,78.1,71.1,79,29.91,10.0,SSW,4.6,-,N/A,,Scattered Clouds,200,2012-10-08 16:53:00
7:53 AM,79.0,71.1,77,29.92,10.0,SSW,5.8,-,N/A,,Scattered Clouds,200,2012-10-08 17:53:00
8:53 AM,80.1,71.1,74,29.94,10.0,South,9.2,-,N/A,,Mostly Cloudy,180,2012-10-08 18:53:00
9:15 AM,80.6,71.6,74,29.94,10.0,South,10.4,-,N/A,,Scattered Clouds,180,2012-10-08 19:15:00
9:53 AM,81.0,71.1,72,29.95,10.0,SSW,9.2,-,N/A,,Scattered Clouds,200,2012-10-08 19:53:00
10:53 AM,82.0,71.1,69,29.96,10.0,North,-9999.0,-,N/A,,Mostly Cloudy,0,2012-10-08 20:53:00
11:53 AM,82.9,71.1,67,29.94,10.0,South,10.4,-,N/A,,Scattered Clouds,180,2012-10-08 21:53:00
12:53 PM,82.9,71.1,67,29.93,10.0,South,11.5,-,N/A,,Scattered Clouds,190,2012-10-08 22:53:00
1:53 PM,84.0,71.1,65,29.91,10.0,South,10.4,-,N/A,,Scattered Clouds,180,2012-10-08 23:53:00
2:53 PM,82.0,71.1,69,29.90,10.0,South,10.4,-,N/A,,Scattered Clouds,190,2012-10-09 00:53:00
3:53 PM,82.9,71.1,67,29.90,10.0,SSW,11.5,-,N/A,,Partly Cloudy,210,2012-10-09 01:53:00
4:53 PM,81.0,70.0,69,29.91,9.0,South,10.4,-,N/A,,Scattered Clouds,170,2012-10-09 02:53:00
5:53 PM,79.0,72.0,79,29.92,9.0,South,8.1,-,N/A,,Scattered Clouds,180,2012-10-09 03:53:00
6:53 PM,79.0,72.0,79,29.94,8.0,South,6.9,-,N/A,,Scattered Clouds,180,2012-10-09 04:53:00
7:53 PM,78.1,72.0,81,29.96,8.0,SSW,4.6,-,N/A,,Scattered Clouds,200,2012-10-09 05:53:00
8:53 PM,78.1,71.1,79,29.98,8.0,South,3.5,-,N/A,,Scattered Clouds,190,2012-10-09 06:53:00
9:53 PM,78.1,71.1,79,29.99,8.0,Calm,Calm,-,N/A,,Scattered Clouds,0,2012-10-09 07:53:00
10:53 PM,77.0,70.0,79,29.98,8.0,South,3.5,-,N/A,,Scattered Clouds,170,2012-10-09 08:53:00
11:53 PM,77.0,70.0,79,29.98,8.0,Calm,Calm,-,N/A,,Scattered Clouds,0,2012-10-09 09:53:00